[Date Prev][Date Next][Thread Prev][Thread Next] - [Date Index][Thread Index][Author Index]

2 Line ISS Keps 2-15



ISS
1 25544U 98067A   03046.19444444  .00022586  00000-0  29644-3 0  6917
2 25544  51.6345 272.9263 0012301 203.5259 291.3274 15.58359528241972


----
Via the sarex mailing list at AMSAT.ORG courtesy of AMSAT-NA.
To unsubscribe, send "unsubscribe sarex" to Majordomo@amsat.org



AMSAT Top AMSAT Home